Regional Weather Roundup
Issued by NWS

Home | Current Version | Previous Version | Graphics & Text | Print | Product List | Glossary On
Versions: 1 2 3 4 5 6 7 8 9 10 11 12 13 14 15 16 17 18 19 20 21 22 23 24 25 26 27 28 29 30 31 32 33 34 35 36 37 38 39 40 41 42 43 44 45 46 47 48 49 50
000
ASUS43 KLOT 200958
RWRIL

ILLINOIS REGIONAL WEATHER ROUNDUP
NATIONAL WEATHER SERVICE CHICAGO/ROMEOVILLE IL
500 AM CDT WED AUG 20 2014

NOTE: "FAIR" INDICATES FEW OR NO CLOUDS BELOW 12,000 FEET WITH NO
SIGNIFICANT WEATHER AND/OR OBSTRUCTIONS TO VISIBILITY.

* THESE STATIONS ARE NOT UNDER NWS QUALITY CONTROL. THEY ALSO MAY NOT
  REPORT WEATHER SUCH AS PRECIPITATION OR FOG.

ILZ001-002-007-009-015-016-024-201100-
NORTHWEST ILLINOIS

CITY           SKY/WX    TMP DP  RH WIND       PRES   REMARKS
MOLINE         CLEAR     62  60  93 CALM      29.82S
$$

ILZ003-004-008-010-011-017-018-201100-
NORTH CENTRAL ILLINOIS

CITY           SKY/WX    TMP DP  RH WIND       PRES   REMARKS
ROCKFORD       NOT AVBL
$$

ILZ005-006-012>014-019>023-201100-
NORTHEAST ILLINOIS

CITY           SKY/WX    TMP DP  RH WIND       PRES   REMARKS
CHICAGO-OHARE  CLEAR     67  60  78 W6        29.82R
CHICAGO-MIDWAY PTCLDY    70  65  84 W7        29.82R
AURORA         CLEAR     61  58  90 CALM      29.84R
WAUKEGAN       CLEAR     64  62  93 CALM      29.82R
DUPAGE AIRPORT CLEAR     64  61  90 CALM      29.83R
WHEELING       CLEAR     68  63  84 CALM      29.84R
NORTHERLY ISL    N/A     71  63  75 W5          N/A
$$

LMZ740>746-201100-
SOUTHERN LAKE MICHIGAN

STATION/POSITION SKY/WX   TEMP    WIND        PRES    VSBY  WAVE
                          AIR SEA DIR/SP/G                  HT/PER
                          (F)     (DEG/KT/KT) (MB)    (MI)  (FT/S)
SOUTHERN BUOY              67 66  260/  6/  6 1008.7R         1
WAUKEGAN HARBOR            69     260/  5/  6   N/A
HARRISON CRIB              71     270/ 10/ 11   N/A
BURNHAM HARBOR             71     280/  6/  7   N/A
CALUMET HARBOR             69     250/  4/  6 1008.7R
BURNS HARBOR               72     240/  9/ 10   N/A
MICHIGAN CITY              72     210/ 10/ 11   N/A
MICHIGAN CITY 6N           71 70  270/  8/ 10   N/A           1/ 2
ST. JOSEPH                 70 70  270/  8/ 10   N/A           1/ 3
$$

ILZ025>027-034>036-040-047-049-050-058-095>099-201100-
WEST-CENTRAL ILLINOIS

CITY           SKY/WX    TMP DP  RH WIND       PRES   REMARKS
$$

ILZ028>032-037-038-041>044-048-051>054-059>061-201100-
CENTRAL ILLINOIS

CITY           SKY/WX    TMP DP  RH WIND       PRES   REMARKS
PEORIA         NOT AVBL
SPRINGFIELD    MOCLDY    67  66  97 SW5       29.87R FOG
TAYLORVILLE    NOT AVBL
$$

ILZ033-039-045-046-055>057-062-063-201100-
EAST-CENTRAL ILLINOIS

CITY           SKY/WX    TMP DP  RH WIND       PRES   REMARKS
CHAMPAIGN      FOG       62  62 100 CALM      29.86S VSB 1/4
MATTOON        CLEAR     72  70  93 SW6       29.86R
$$

ILZ079-100>102-201100-
SOUTHWEST ILLINOIS

CITY           SKY/WX    TMP DP  RH WIND       PRES   REMARKS
BELLEVILLE     CLEAR     70  70 100 CALM      29.86R FOG
CAHOKIA*       CLEAR     70  69  97 CALM      29.86R
$$

ILZ064>066-069>071-074>076-080>082-084>086-088>090-092>094-201100-
SOUTH-CENTRAL ILLINOIS

CITY           SKY/WX    TMP DP  RH WIND       PRES   REMARKS
CARBONDALE     CLEAR     68  66  93 CALM      29.87R
$$

ILZ067-068-072-073-078-083-087-091-201100-
SOUTHEAST ILLINOIS

CITY           SKY/WX    TMP DP  RH WIND       PRES   REMARKS
LAWRENCEVILLE  PTCLDY    70  69  97 CALM      29.88R FOG
$$

ABBREVIATIONS USED IN REMARKS
   TC - TEMPERATURE IN CELSIUS
  WCI - WIND CHILL INDEX
   HX - HEAT INDEX
  VSB - VISIBILITY
$$



USA.gov is the U.S. government's official web portal to all federal, state and local government web resources and services.